Tracking 19800 objects as of 24-Jul-2019
HD Live streaming from Space Station
objects crossing your sky now

SL-12 R/B(AUX MOTOR)

Track SL-12 R/B(AUX MOTOR) now!
10-day predictions


NORAD ID: 13608
Int'l Code: 1982-100F
Perigee: 258.0 km
Apogee: 8,630.2 km
Inclination: 52.1 °
Period: 186.6 minutes
Semi major axis: 10815 km
RCS: 0.6227 m2 (medium)
Launch date: October 12, 1982
Source: Commonwealth of Independent States (former USSR) (CIS)
Launch site: TYURATAM MISSILE AND SPACE COMPLEX (TTMTR)

Note: This is a ROCKET BODY
aabbcc
Your satellite tracking list
Your tracking list is empty




NASA's NSSDC Master Catalog

Two Line Element Set (TLE):
1 13608U 82100F   19204.70249117 +.00004698 +00000-0 +18060-3 0  9991
2 13608 052.0776 291.4597 3870606 261.6301 053.8084 07.71893777780664
Source of the keplerian elements: AFSPC